Date String (YYYY-MM-DD hh:mm:ss) UTC,Instrument flags,Ambient pressure (hPa),Sample flow (lpm),Bypass flow (lpm),Sample temperature (°C),Ambient temperature (°C),ASC tube jacket temperature (°C),LED temperature (°C),Box temperature (°C),Sample RH (%),Span deviation,Mass concentration (μg/m³),Mass concentration (μg/m³),Mass concentration (μg/m³)
DateTimeUTC,F1_M11,P_M11,Q1_M11,Q2_M11,T1_M11,T2_M11,T3_M11,T4_M11,T5_M11,U1_M11,ZSPAN_M11,X0_M11,X2_M11,X1_M11
2023-02-06 17:00:00,,0818.5,5.01,0.00,22.3,21.1,00.0,31.1,24.1,09.4,0000.0,0007.65,0004.71,0004.42
2023-02-06 17:01:00,,0818.6,5.02,0.00,22.3,21.1,00.0,31.1,24.1,08.7,0000.0,0007.44,0004.52,0004.22
2023-02-06 17:02:00,,0818.7,4.98,0.00,22.3,21.1,00.0,31.1,24.1,08.7,0000.0,0007.29,0004.35,0004.05
2023-02-06 17:03:00,,0818.7,5.02,0.00,22.3,21.0,00.0,31.1,24.1,08.3,0000.0,0007.01,0004.21,0003.94
2023-02-06 17:04:00,,0818.7,5.01,0.00,22.3,21.0,00.0,31.1,24.1,09.5,0000.0,0007.39,0004.38,0004.07
2023-02-06 17:05:00,,0818.8,4.94,0.00,22.3,21.1,00.0,31.1,24.2,09.5,0000.0,0007.60,0004.59,0004.28
2023-02-06 17:06:00,,0818.8,5.02,0.00,22.4,21.1,00.0,31.1,24.1,09.5,0000.0,0008.80,0004.84,0004.50
2023-02-06 17:07:00,,0818.8,5.06,0.00,22.4,21.1,00.0,31.1,24.1,09.6,0000.0,0009.61,0005.14,0004.76
2023-02-06 17:08:00,,0818.9,4.96,0.00,22.4,21.2,00.0,31.2,24.1,09.5,0000.0,0009.91,0005.35,0004.96
2023-02-06 17:09:00,,0818.9,4.99,0.00,22.4,21.2,00.0,31.2,24.2,09.6,0000.0,0009.94,0005.40,0005.02
2023-02-06 17:10:00,,0819.0,5.00,0.00,22.4,21.2,00.0,31.2,24.2,09.9,0000.0,0010.13,0005.40,0005.05
2023-02-06 17:11:00,,0819.0,5.01,0.00,22.4,21.2,00.0,31.2,24.2,09.8,0000.0,0010.46,0005.44,0005.08
2023-02-06 17:12:00,,0819.0,4.96,0.00,22.4,21.2,00.0,31.2,24.2,09.9,0000.0,0010.62,0005.54,0005.18
2023-02-06 17:13:00,,0819.1,5.07,0.00,22.4,21.2,00.0,31.2,24.2,09.7,0000.0,0010.74,0005.66,0005.28
2023-02-06 17:14:00,,0819.1,4.99,0.00,22.4,21.2,00.0,31.2,24.2,09.7,0000.0,0010.93,0005.86,0005.45
2023-02-06 17:15:00,,0819.2,4.95,0.00,22.4,21.2,00.0,31.2,24.2,09.6,0000.0,0011.03,0005.94,0005.52
2023-02-06 17:16:00,,0819.2,5.07,0.00,22.4,21.2,00.0,31.2,24.2,09.5,0000.0,0010.98,0005.92,0005.50
2023-02-06 17:17:00,,0819.2,5.01,0.00,22.4,21.2,00.0,31.2,24.2,09.5,0000.0,0009.92,0005.90,0005.50
2023-02-06 17:18:00,,0819.1,4.96,0.00,22.4,21.2,00.0,31.2,24.2,09.4,0000.0,0009.50,0005.87,0005.48
2023-02-06 17:19:00,,0819.2,5.04,0.00,22.4,21.2,00.0,31.2,24.2,09.0,0000.0,0009.75,0005.79,0005.41
2023-02-06 17:20:00,,0819.2,5.02,0.00,22.4,21.2,00.0,31.2,24.3,08.7,0000.0,0009.69,0005.63,0005.26
2023-02-06 17:21:00,,0819.2,4.97,0.00,22.4,21.2,00.0,31.2,24.2,09.2,0000.0,0009.30,0005.55,0005.16
2023-02-06 17:22:00,,0819.1,5.05,0.00,22.4,21.1,00.0,31.2,24.2,08.4,0000.0,0008.84,0005.40,0005.02
2023-02-06 17:23:00,,0819.1,5.02,0.00,22.4,21.0,00.0,31.2,24.2,08.0,0000.0,0008.49,0005.13,0004.76
2023-02-06 17:24:00,,0819.0,4.95,0.00,22.4,21.0,00.0,31.2,24.1,08.2,0000.0,0008.12,0004.87,0004.55
2023-02-06 17:25:00,,0819.0,5.01,0.00,22.4,21.0,00.0,31.2,24.1,08.3,0000.0,0007.88,0004.65,0004.35
2023-02-06 17:26:00,,0819.1,5.05,0.00,22.4,21.0,00.0,31.2,24.1,08.1,0000.0,0007.63,0004.44,0004.17
2023-02-06 17:27:00,,0819.1,4.99,0.00,22.4,21.1,00.0,31.2,24.1,08.7,0000.0,0007.44,0004.28,0004.03
2023-02-06 17:28:00,,0819.1,4.98,0.00,22.4,21.1,00.0,31.2,24.1,08.3,0000.0,0007.17,0004.13,0003.90
2023-02-06 17:29:00,,0819.1,5.07,0.00,22.4,21.1,00.0,31.2,24.0,07.8,0000.0,0006.58,0003.84,0003.62
2023-02-06 17:30:00,,0819.1,4.98,0.00,22.4,21.1,00.0,31.2,24.1,07.4,0000.0,0005.35,0003.56,0003.35
2023-02-06 17:31:00,,0819.1,5.03,0.00,22.4,21.1,00.0,31.2,24.0,07.3,0000.0,0004.43,0003.31,0003.11
2023-02-06 17:32:00,,0819.1,5.03,0.00,22.4,21.1,00.0,31.2,24.1,07.3,0000.0,0003.90,0002.92,0002.64
2023-02-06 17:33:00,,0819.2,4.97,0.00,22.4,21.1,00.0,31.2,24.1,06.9,0000.0,0003.26,0002.39,0002.17
2023-02-06 17:34:00,,0819.1,5.03,0.00,22.4,21.1,00.0,31.2,24.1,07.0,0000.0,0002.98,0002.18,0001.99
2023-02-06 17:35:00,,0819.1,5.00,0.00,22.4,21.1,00.0,31.2,24.1,07.1,0000.0,0002.71,0001.95,0001.78
2023-02-06 17:36:00,,0819.2,4.96,0.00,22.4,21.1,00.0,31.2,24.1,07.4,0000.0,0002.32,0001.67,0001.52
2023-02-06 17:37:00,,0819.2,4.94,0.00,22.4,21.1,00.0,31.2,24.1,07.5,0000.0,0002.17,0001.40,0001.25
2023-02-06 17:38:00,,0819.3,5.07,0.00,22.4,21.1,00.0,31.2,24.1,07.5,0000.0,0001.80,0001.06,0000.89
2023-02-06 17:39:00,,0819.3,5.00,0.00,22.4,21.2,00.0,31.2,24.2,07.9,0000.0,0001.48,0000.77,0000.58
2023-02-06 17:40:00,,0819.3,4.98,0.00,22.4,21.2,00.0,31.2,24.2,07.7,0000.0,0001.48,0000.81,0000.65
2023-02-06 17:41:00,,0819.3,5.01,0.00,22.4,21.2,00.0,31.2,24.2,07.6,0000.0,0001.55,0000.90,0000.75
2023-02-06 17:42:00,,0819.3,5.02,0.00,22.4,21.3,00.0,31.2,24.3,07.6,0000.0,0001.67,0001.03,0000.89
2023-02-06 17:43:00,,0819.3,4.95,0.00,22.5,21.3,00.0,31.3,24.3,07.6,0000.0,0001.70,0001.15,0000.99
2023-02-06 17:44:00,,0819.4,5.06,0.00,22.5,21.3,00.0,31.3,24.3,08.1,0000.0,0002.80,0001.33,0001.15
2023-02-06 17:45:00,,0819.5,4.98,0.00,22.5,21.3,00.0,31.3,24.2,08.4,0000.0,0003.57,0001.61,0001.40
2023-02-06 17:46:00,,0819.5,5.01,0.00,22.5,21.3,00.0,31.3,24.3,07.6,0000.0,0003.75,0001.76,0001.54
2023-02-06 17:47:00,,0819.5,5.07,0.00,22.5,21.4,00.0,31.3,24.3,07.4,0000.0,0003.76,0001.80,0001.56
2023-02-06 17:48:00,,0819.5,4.95,0.00,22.5,21.4,00.0,31.3,24.3,07.4,0000.0,0003.63,0001.80,0001.56
2023-02-06 17:49:00,,0819.5,5.05,0.00,22.5,21.4,00.0,31.3,24.3,07.3,0000.0,0003.64,0001.77,0001.56
2023-02-06 17:50:00,,0819.5,5.03,0.00,22.6,21.4,00.0,31.3,24.3,07.3,0000.0,0003.58,0001.71,0001.48
2023-02-06 17:51:00,,0819.4,4.98,0.00,22.6,21.4,00.0,31.3,24.3,07.4,0000.0,0003.45,0001.56,0001.33
2023-02-06 17:52:00,,0819.4,4.98,0.00,22.6,21.4,00.0,31.3,24.3,07.1,0000.0,0003.34,0001.45,0001.21
2023-02-06 17:53:00,,0819.4,5.01,0.00,22.6,21.4,00.0,31.3,24.3,06.7,0000.0,0003.19,0001.32,0001.09
2023-02-06 17:54:00,,0819.4,5.01,0.00,22.6,21.4,00.0,31.4,24.3,07.1,0000.0,0003.04,0001.20,0001.00
2023-02-06 17:55:00,,0819.5,4.98,0.00,22.6,21.4,00.0,31.4,24.3,07.1,0000.0,0002.01,0001.04,0000.85
2023-02-06 17:56:00,,0819.5,4.97,0.00,22.6,21.4,00.0,31.4,24.3,07.7,0000.0,0001.27,0000.83,0000.66
2023-02-06 17:57:00,,0819.5,5.01,0.00,22.6,21.4,00.0,31.4,24.3,08.2,0000.0,0001.70,0000.84,0000.67
2023-02-06 17:58:00,,0819.6,5.05,0.00,22.6,21.5,00.0,31.4,24.3,11.5,0000.0,0003.71,0001.41,0001.16
2023-02-06 17:59:00,,0819.6,4.98,0.00,22.7,21.5,00.0,31.4,24.4,12.3,0000.0,0004.55,0002.16,0001.86
